View from above orbital plane
|
View from above satellite
|
Ground track
|
The orbit data is extracted from the following two-line orbital elements,
1 27640U 03001A 21015.51737299 -.00000004 00000-0 18796-4 0 9995
2 27640 98.7244 27.6904 0014789 143.9533 328.3175 14.19058390933510
Epoch (UTC): | 15 January 2021 12:25:01 |
Eccentricity: | 0.0014789 |
inclination: | 98.7244° |
perigee height: | 818 km |
apogee height: | 839 km |
right ascension of ascending node: | 27.6904° |
argument of perigee: | 143.9533° |
revolutions per day: | 14.19058390 |
mean anomaly at epoch: | 328.3175° |
orbit number at epoch: | 93351 |
The dashed part of the orbit path shows where the satellite is in the earth's shadow,
|
|